Simultaneous Nadir Overpasses (SNOs) Predictions

Prediction of SNOs between AQUA and METOP-B Satellite Orbit:

Table of predicted SNOs for the next 14.0 days since TLE Epoch: 5/2/2013
Index Date (AQUA) Time (AQUA) Lat,Lon (AQUA) SZA (AQUA ) Date (METOP-B) Time (METOP-B) Lat,Lon (METOP-B) SZA (METOP-B ) Distance(km) Time Diff (sec)
1 05/03/2013 12:32:35 73.72, -13.54 57.88 05/03/2013 12:31:28 73.70, -13.56 57.87 2.69 67
2 05/03/2013 13:22:02 -73.80, 153.94 122.05 05/03/2013 13:22:08 -73.80, 154.00 122.05 2.11 6
3 05/03/2013 14:11:32 73.93, -38.72 58.08 05/03/2013 14:12:44 73.98, -38.23 58.11 16.02 72
4 05/06/2013 08:06:45 73.72, 52.91 57.08 05/06/2013 08:05:51 73.74, 52.93 57.10 1.55 54
5 05/06/2013 08:56:12 -73.79,-139.60 122.86 05/06/2013 08:56:32 -73.79,-139.63 122.87 1.26 20
6 05/06/2013 09:45:52 74.45, 26.53 57.83 05/06/2013 09:46:58 74.46, 29.38 57.76 84.98 66
7 05/09/2013 03:40:55 73.72, 119.37 56.30 05/09/2013 03:40:16 73.71, 119.28 56.31 3.15 39
8 05/09/2013 04:30:22 -73.79, -73.13 123.64 05/09/2013 04:30:56 -73.81, -73.17 123.61 2.88 34
9 05/11/2013 23:15:05 73.77,-174.27 55.63 05/11/2013 23:14:40 73.73,-174.28 55.60 3.78 25
10 05/12/2013 00:04:32 -73.83, -6.77 124.32 05/12/2013 00:05:20 -73.83, -6.73 124.33 1.32 48
11 05/14/2013 17:59:40 -73.51, 85.13 125.34 05/14/2013 17:58:29 -73.46, 84.15 125.35 31.19 71
12 05/14/2013 18:49:12 73.76,-107.79 54.93 05/14/2013 18:49:03 73.75,-107.85 54.92 2.57 9
13 05/14/2013 19:38:39 -73.82, 59.72
